Time,TemperatureF,DewpointF,PressureIn,WindDirection,WindDirectionDegrees,WindSpeedMPH,WindSpeedGustMPH,Humidity,HourlyPrecipIn,Conditions,Clouds,dailyrainin,SoftwareType,DateUTC
2013-05-01 00:03:00,73.0,-99.9,30.01,East,92,5.0,7.0,-999,-99.99,,,-99.99,,2013-05-01 04:03:00,
2013-05-01 00:12:00,73.0,-99.9,30.00,East,98,5.0,7.0,-999,-99.99,,,-99.99,,2013-05-01 04:12:00,
2013-05-01 00:23:00,73.0,-99.9,29.99,East,100,6.0,8.0,-999,-99.99,,,-99.99,,2013-05-01 04:23:00,
2013-05-01 00:32:00,73.0,-99.9,29.99,ESE,113,7.0,11.0,-999,-99.99,,,-99.99,,2013-05-01 04:32:00,
2013-05-01 00:43:00,72.0,-99.9,29.99,ESE,111,5.0,9.0,-999,-99.99,,,-99.99,,2013-05-01 04:43:00,
2013-05-01 00:52:00,72.0,-99.9,29.99,East,101,5.0,9.0,-999,-99.99,,,-99.99,,2013-05-01 04:52:00,
2013-05-01 01:02:00,72.0,-99.9,29.99,ESE,113,5.0,8.0,-999,-99.99,,,-99.99,,2013-05-01 05:02:00,
2013-05-01 01:12:00,72.0,-99.9,29.99,ESE,117,5.0,8.0,-999,-99.99,,,-99.99,,2013-05-01 05:12:00,
2013-05-01 01:22:00,72.0,-99.9,29.99,ESE,112,6.0,8.0,-999,-99.99,,,-99.99,,2013-05-01 05:22:00,
2013-05-01 01:32:00,72.0,-99.9,29.98,ESE,108,5.0,8.0,-999,-99.99,,,-99.99,,2013-05-01 05:32:00,
2013-05-01 01:42:00,72.0,-99.9,29.98,ESE,114,5.0,8.0,-999,-99.99,,,-99.99,,2013-05-01 05:42:00,
2013-05-01 01:52:00,72.0,-99.9,29.98,ESE,120,6.0,8.0,-999,-99.99,,,-99.99,,2013-05-01 05:52:00,
2013-05-01 02:02:00,72.0,-99.9,29.98,ESE,104,5.0,8.0,-999,-99.99,,,-99.99,,2013-05-01 06:02:00,
2013-05-01 02:12:00,72.0,-99.9,29.97,ESE,108,5.0,7.0,-999,-99.99,,,-99.99,,2013-05-01 06:12:00,
2013-05-01 02:22:00,72.0,-99.9,29.97,ESE,102,5.0,7.0,-999,-99.99,,,-99.99,,2013-05-01 06:22:00,
2013-05-01 02:32:00,72.0,-99.9,29.97,East,93,4.0,8.0,-999,-99.99,,,-99.99,,2013-05-01 06:32:00,
2013-05-01 02:42:00,72.0,-99.9,29.96,East,96,4.0,7.0,-999,-99.99,,,-99.99,,2013-05-01 06:42:00,
2013-05-01 02:52:00,72.0,-99.9,29.95,East,93,4.0,6.0,-999,-99.99,,,-99.99,,2013-05-01 06:52:00,
2013-05-01 03:01:00,72.0,-99.9,29.95,ESE,103,4.0,6.0,-999,-99.99,,,-99.99,,2013-05-01 07:01:00,
2013-05-01 03:11:00,71.0,-99.9,29.95,East,91,4.0,6.0,-999,-99.99,,,-99.99,,2013-05-01 07:11:00,
2013-05-01 03:22:00,71.0,-99.9,29.95,East,84,5.0,9.0,-999,-99.99,,,-99.99,,2013-05-01 07:22:00,
2013-05-01 03:32:00,71.0,-99.9,29.94,East,100,4.0,8.0,-999,-99.99,,,-99.99,,2013-05-01 07:32:00,
2013-05-01 03:42:00,71.0,-99.9,29.94,East,91,4.0,6.0,-999,-99.99,,,-99.99,,2013-05-01 07:42:00,
2013-05-01 03:52:00,71.0,-99.9,29.94,East,90,5.0,7.0,-999,-99.99,,,-99.99,,2013-05-01 07:52:00,
2013-05-01 04:02:00,71.0,-99.9,29.94,East,92,4.0,7.0,-999,-99.99,,,-99.99,,2013-05-01 08:02:00,
2013-05-01 04:12:00,71.0,-99.9,29.94,East,87,4.0,6.0,-999,-99.99,,,-99.99,,2013-05-01 08:12:00,
2013-05-01 04:22:00,71.0,-99.9,29.94,East,101,4.0,6.0,-999,-99.99,,,-99.99,,2013-05-01 08:22:00,
2013-05-01 04:32:00,71.0,-99.9,29.93,East,96,4.0,7.0,-999,-99.99,,,-99.99,,2013-05-01 08:32:00,
2013-05-01 04:42:00,71.0,-99.9,29.93,ENE,78,5.0,8.0,-999,-99.99,,,-99.99,,2013-05-01 08:42:00,
2013-05-01 04:53:00,71.0,-99.9,29.93,East,83,5.0,8.0,-999,-99.99,,,-99.99,,2013-05-01 08:53:00,
2013-05-01 05:02:00,71.0,-99.9,29.93,East,90,4.0,6.0,-999,-99.99,,,-99.99,,2013-05-01 09:02:00,
2013-05-01 05:12:00,71.0,-99.9,29.93,East,86,5.0,8.0,-999,-99.99,,,-99.99,,2013-05-01 09:12:00,
2013-05-01 05:22:00,71.0,-99.9,29.93,ENE,74,6.0,10.0,-999,-99.99,,,-99.99,,2013-05-01 09:22:00,
2013-05-01 05:33:00,71.0,-99.9,29.94,ENE,76,6.0,9.0,-999,-99.99,,,-99.99,,2013-05-01 09:33:00,
2013-05-01 05:43:00,71.0,-99.9,29.94,East,89,6.0,10.0,-999,-99.99,,,-99.99,,2013-05-01 09:43:00,
2013-05-01 05:53:00,71.0,-99.9,29.95,East,91,5.0,9.0,-999,-99.99,,,-99.99,,2013-05-01 09:53:00,
2013-05-01 06:03:00,71.0,-99.9,29.94,East,80,6.0,11.0,-999,-99.99,,,-99.99,,2013-05-01 10:03:00,
2013-05-01 06:12:00,70.0,-99.9,29.95,East,90,6.0,9.0,-999,-99.99,,,-99.99,,2013-05-01 10:12:00,
2013-05-01 06:22:00,70.0,-99.9,29.95,East,87,6.0,9.0,-999,-99.99,,,-99.99,,2013-05-01 10:22:00,
2013-05-01 06:33:00,71.0,-99.9,29.96,ESE,102,5.0,9.0,-999,-99.99,,,-99.99,,2013-05-01 10:33:00,
2013-05-01 06:42:00,71.0,-99.9,29.95,East,100,4.0,9.0,-999,-99.99,,,-99.99,,2013-05-01 10:42:00,
2013-05-01 06:53:00,71.0,-99.9,29.96,ESE,122,6.0,8.0,-999,-99.99,,,-99.99,,2013-05-01 10:53:00,
2013-05-01 07:03:00,71.0,-99.9,29.96,East,97,4.0,10.0,-999,-99.99,,,-99.99,,2013-05-01 11:03:00,
2013-05-01 07:11:00,71.0,-99.9,29.96,ESE,102,5.0,11.0,-999,-99.99,,,-99.99,,2013-05-01 11:11:00,
2013-05-01 07:22:00,71.0,-99.9,29.96,East,94,5.0,8.0,-999,-99.99,,,-99.99,,2013-05-01 11:22:00,
2013-05-01 07:32:00,71.0,-99.9,29.96,East,101,5.0,10.0,-999,-99.99,,,-99.99,,2013-05-01 11:32:00,
2013-05-01 07:42:00,71.0,-99.9,-100.00,ESE,102,4.0,6.0,-999,-99.99,,,-99.99,,2013-05-01 11:42:00,
2013-05-01 07:52:00,71.0,-99.9,29.96,East,86,5.0,10.0,-999,-99.99,,,-99.99,,2013-05-01 11:52:00,
2013-05-01 08:02:00,71.0,-99.9,29.96,East,95,5.0,9.0,-999,-99.99,,,-99.99,,2013-05-01 12:02:00,
2013-05-01 08:11:00,72.0,-99.9,29.96,East,92,4.0,8.0,-999,-99.99,,,-99.99,,2013-05-01 12:11:00,
2013-05-01 08:22:00,72.0,-99.9,29.96,East,82,4.0,9.0,-999,-99.99,,,-99.99,,2013-05-01 12:22:00,
2013-05-01 08:32:00,73.0,-99.9,29.96,East,87,6.0,11.0,-999,-99.99,,,-99.99,,2013-05-01 12:32:00,
2013-05-01 08:42:00,73.0,-99.9,29.96,East,92,6.0,10.0,-999,-99.99,,,-99.99,,2013-05-01 12:42:00,
2013-05-01 08:52:00,74.0,-99.9,29.97,East,94,7.0,10.0,-999,-99.99,,,-99.99,,2013-05-01 12:52:00,
2013-05-01 09:02:00,74.0,-99.9,29.97,East,99,6.0,10.0,-999,-99.99,,,-99.99,,2013-05-01 13:02:00,
2013-05-01 09:11:00,75.0,-99.9,29.98,SE,125,5.0,10.0,-999,-99.99,,,-99.99,,2013-05-01 13:11:00,
2013-05-01 09:22:00,75.0,-99.9,29.98,ESE,122,4.0,8.0,-999,-99.99,,,-99.99,,2013-05-01 13:22:00,
2013-05-01 09:32:00,75.0,-99.9,29.98,ESE,110,6.0,10.0,-999,-99.99,,,-99.99,,2013-05-01 13:32:00,
2013-05-01 09:42:00,76.0,-99.9,30.00,SE,139,5.0,9.0,-999,-99.99,,,-99.99,,2013-05-01 13:42:00,
2013-05-01 09:52:00,76.0,-99.9,30.00,ESE,118,5.0,8.0,-999,-99.99,,,-99.99,,2013-05-01 13:52:00,
2013-05-01 10:02:00,76.0,-99.9,30.00,ESE,107,6.0,8.0,-999,-99.99,,,-99.99,,2013-05-01 14:02:00,
2013-05-01 10:11:00,77.0,-99.9,30.00,SE,124,6.0,9.0,-999,-99.99,,,-99.99,,2013-05-01 14:11:00,
2013-05-01 10:22:00,77.0,-99.9,30.00,SE,125,6.0,9.0,-999,-99.99,,,-99.99,,2013-05-01 14:22:00,
2013-05-01 10:32:00,77.0,-99.9,29.99,ESE,112,7.0,9.0,-999,-99.99,,,-99.99,,2013-05-01 14:32:00,
2013-05-01 10:42:00,78.0,-99.9,30.00,ESE,107,5.0,9.0,-999,-99.99,,,-99.99,,2013-05-01 14:42:00,
2013-05-01 10:52:00,78.0,-99.9,30.00,ESE,104,6.0,9.0,-999,-99.99,,,-99.99,,2013-05-01 14:52:00,
2013-05-01 11:01:00,78.0,-99.9,30.00,SE,125,9.0,11.0,-999,-99.99,,,-99.99,,2013-05-01 15:01:00,
2013-05-01 11:12:00,79.0,-99.9,29.99,ESE,121,6.0,11.0,-999,-99.99,,,-99.99,,2013-05-01 15:12:00,
2013-05-01 11:22:00,79.0,-99.9,29.99,SE,126,7.0,13.0,-999,-99.99,,,-99.99,,2013-05-01 15:22:00,
2013-05-01 11:33:00,79.0,-99.9,29.99,ESE,111,7.0,10.0,-999,-99.99,,,-99.99,,2013-05-01 15:33:00,
2013-05-01 11:43:00,79.0,-99.9,29.99,SE,145,9.0,12.0,-999,-99.99,,,-99.99,,2013-05-01 15:43:00,
2013-05-01 11:53:00,80.0,-99.9,29.99,SE,136,8.0,12.0,-999,-99.99,,,-99.99,,2013-05-01 15:53:00,
2013-05-01 12:03:00,80.0,-99.9,29.99,SE,146,7.0,11.0,-999,-99.99,,,-99.99,,2013-05-01 16:03:00,
2013-05-01 12:12:00,80.0,-99.9,29.99,SE,144,6.0,10.0,-999,-99.99,,,-99.99,,2013-05-01 16:12:00,
2013-05-01 12:22:00,80.0,-99.9,29.99,SSE,164,8.0,11.0,-999,-99.99,,,-99.99,,2013-05-01 16:22:00,
2013-05-01 12:32:00,80.0,-99.9,30.00,SSE,156,8.0,11.0,-999,-99.99,,,-99.99,,2013-05-01 16:32:00,
2013-05-01 12:42:00,80.0,-99.9,30.01,South,175,8.0,15.0,-999,-99.99,,,-99.99,,2013-05-01 16:42:00,
2013-05-01 12:53:00,79.0,-99.9,30.01,SSE,166,10.0,15.0,-999,-99.99,,,-99.99,,2013-05-01 16:53:00,
2013-05-01 13:02:00,79.0,-99.9,30.01,South,172,9.0,11.0,-999,-99.99,,,-99.99,,2013-05-01 17:02:00,
2013-05-01 13:12:00,79.0,-99.9,30.02,South,180,4.0,13.0,-999,-99.99,,,-99.99,,2013-05-01 17:12:00,
2013-05-01 13:22:00,69.0,-99.9,30.04,WSW,237,27.0,33.0,-999,-99.99,,,-99.99,,2013-05-01 17:22:00,
2013-05-01 13:32:00,67.0,-99.9,30.04,SW,231,17.0,28.0,-999,-99.99,,,-99.99,,2013-05-01 17:32:00,
2013-05-01 13:42:00,69.0,-99.9,30.03,SSW,203,2.0,12.0,-999,-99.99,,,-99.99,,2013-05-01 17:42:00,
2013-05-01 13:52:00,68.0,-99.9,30.02,South,171,9.0,14.0,-999,-99.99,,,-99.99,,2013-05-01 17:52:00,
2013-05-01 14:02:00,68.0,-99.9,30.01,SSE,160,5.0,8.0,-999,-99.99,,,-99.99,,2013-05-01 18:02:00,
2013-05-01 14:12:00,69.0,-99.9,30.00,SW,214,4.0,9.0,-999,-99.99,,,-99.99,,2013-05-01 18:12:00,
2013-05-01 14:22:00,69.0,-99.9,29.99,WSW,242,15.0,17.0,-999,-99.99,,,-99.99,,2013-05-01 18:22:00,
2013-05-01 14:32:00,70.0,-99.9,29.98,SW,225,7.0,12.0,-999,-99.99,,,-99.99,,2013-05-01 18:32:00,
2013-05-01 14:42:00,71.0,-99.9,29.97,SW,214,4.0,14.0,-999,-99.99,,,-99.99,,2013-05-01 18:42:00,
2013-05-01 14:52:00,72.0,-99.9,29.97,SSW,206,4.0,11.0,-999,-99.99,,,-99.99,,2013-05-01 18:52:00,
2013-05-01 15:02:00,73.0,-99.9,29.96,SSE,168,9.0,13.0,-999,-99.99,,,-99.99,,2013-05-01 19:02:00,
2013-05-01 15:12:00,74.0,-99.9,29.98,SSW,193,2.0,9.0,-999,-99.99,,,-99.99,,2013-05-01 19:12:00,
2013-05-01 15:22:00,74.0,-99.9,29.97,South,184,3.0,8.0,-999,-99.99,,,-99.99,,2013-05-01 19:22:00,
2013-05-01 15:32:00,73.0,-99.9,29.96,SSE,163,11.0,15.0,-999,-99.99,,,-99.99,,2013-05-01 19:32:00,
2013-05-01 15:43:00,73.0,-99.9,29.95,SE,139,9.0,13.0,-999,-99.99,,,-99.99,,2013-05-01 19:43:00,
2013-05-01 15:52:00,73.0,-99.9,29.95,SE,125,6.0,8.0,-999,-99.99,,,-99.99,,2013-05-01 19:52:00,
2013-05-01 16:02:00,73.0,-99.9,29.95,ESE,117,6.0,9.0,-999,-99.99,,,-99.99,,2013-05-01 20:02:00,
2013-05-01 16:11:00,73.0,-99.9,29.93,ESE,104,6.0,10.0,-999,-99.99,,,-99.99,,2013-05-01 20:11:00,
2013-05-01 16:22:00,73.0,-99.9,29.94,ESE,103,6.0,10.0,-999,-99.99,,,-99.99,,2013-05-01 20:22:00,
2013-05-01 16:32:00,73.0,-99.9,29.94,SE,132,6.0,10.0,-999,-99.99,,,-99.99,,2013-05-01 20:32:00,
2013-05-01 16:42:00,73.0,-99.9,29.93,SE,132,6.0,9.0,-999,-99.99,,,-99.99,,2013-05-01 20:42:00,
2013-05-01 16:52:00,73.0,-99.9,29.93,ESE,115,8.0,12.0,-999,-99.99,,,-99.99,,2013-05-01 20:52:00,
2013-05-01 17:01:00,73.0,-99.9,29.94,ESE,118,9.0,12.0,-999,-99.99,,,-99.99,,2013-05-01 21:01:00,
2013-05-01 17:11:00,72.0,-99.9,29.94,ESE,112,9.0,12.0,-999,-99.99,,,-99.99,,2013-05-01 21:11:00,
2013-05-01 17:22:00,72.0,-99.9,29.93,East,101,9.0,14.0,-999,-99.99,,,-99.99,,2013-05-01 21:22:00,
2013-05-01 17:32:00,72.0,-99.9,29.93,SE,145,8.0,12.0,-999,-99.99,,,-99.99,,2013-05-01 21:32:00,
2013-05-01 17:43:00,73.0,-99.9,29.92,ESE,123,7.0,11.0,-999,-99.99,,,-99.99,,2013-05-01 21:43:00,
2013-05-01 17:53:00,73.0,-99.9,29.93,SE,145,8.0,11.0,-999,-99.99,,,-99.99,,2013-05-01 21:53:00,
2013-05-01 18:03:00,73.0,-99.9,29.93,SE,124,8.0,12.0,-999,-99.99,,,-99.99,,2013-05-01 22:03:00,
2013-05-01 18:13:00,72.0,-99.9,29.92,SE,124,10.0,15.0,-999,-99.99,,,-99.99,,2013-05-01 22:13:00,
2013-05-01 18:23:00,72.0,-99.9,29.92,ESE,120,10.0,16.0,-999,-99.99,,,-99.99,,2013-05-01 22:23:00,
2013-05-01 18:33:00,72.0,-99.9,29.92,SE,127,11.0,16.0,-999,-99.99,,,-99.99,,2013-05-01 22:33:00,
2013-05-01 18:42:00,72.0,-99.9,29.92,SE,134,10.0,14.0,-999,-99.99,,,-99.99,,2013-05-01 22:42:00,
2013-05-01 18:53:00,72.0,-99.9,29.92,SE,138,10.0,14.0,-999,-99.99,,,-99.99,,2013-05-01 22:53:00,
2013-05-01 19:02:00,73.0,-99.9,29.92,SE,136,11.0,16.0,-999,-99.99,,,-99.99,,2013-05-01 23:02:00,
2013-05-01 19:12:00,73.0,-99.9,29.92,SE,130,10.0,17.0,-999,-99.99,,,-99.99,,2013-05-01 23:12:00,
2013-05-01 19:22:00,73.0,-99.9,29.93,SE,144,10.0,13.0,-999,-99.99,,,-99.99,,2013-05-01 23:22:00,
2013-05-01 19:32:00,73.0,-99.9,29.92,SE,137,11.0,14.0,-999,-99.99,,,-99.99,,2013-05-01 23:32:00,
2013-05-01 19:42:00,74.0,-99.9,29.93,SSE,164,6.0,11.0,-999,-99.99,,,-99.99,,2013-05-01 23:42:00,
2013-05-01 19:52:00,74.0,-99.9,29.93,SE,137,6.0,8.0,-999,-99.99,,,-99.99,,2013-05-01 23:52:00,
2013-05-01 20:01:00,73.0,-99.9,29.93,ESE,111,5.0,8.0,-999,-99.99,,,-99.99,,2013-05-02 00:01:00,
2013-05-01 20:11:00,73.0,-99.9,29.94,SE,131,6.0,8.0,-999,-99.99,,,-99.99,,2013-05-02 00:11:00,
2013-05-01 20:22:00,73.0,-99.9,29.94,SE,141,5.0,8.0,-999,-99.99,,,-99.99,,2013-05-02 00:22:00,
2013-05-01 20:32:00,73.0,-99.9,29.95,SE,135,7.0,10.0,-999,-99.99,,,-99.99,,2013-05-02 00:32:00,
2013-05-01 20:42:00,72.0,-99.9,29.96,SE,125,5.0,9.0,-999,-99.99,,,-99.99,,2013-05-02 00:42:00,
2013-05-01 20:52:00,72.0,-99.9,29.96,SE,132,5.0,7.0,-999,-99.99,,,-99.99,,2013-05-02 00:52:00,
2013-05-01 21:01:00,72.0,-99.9,29.96,SSE,149,4.0,6.0,-999,-99.99,,,-99.99,,2013-05-02 01:01:00,
2013-05-01 21:11:00,72.0,-99.9,29.96,SE,137,4.0,5.0,-999,-99.99,,,-99.99,,2013-05-02 01:11:00,
2013-05-01 21:22:00,72.0,-99.9,29.96,SE,129,4.0,6.0,-999,-99.99,,,-99.99,,2013-05-02 01:22:00,
2013-05-01 21:32:00,72.0,-99.9,29.97,SSE,150,2.0,4.0,-999,-99.99,,,-99.99,,2013-05-02 01:32:00,
2013-05-01 21:42:00,71.0,-99.9,29.96,SE,126,5.0,7.0,-999,-99.99,,,-99.99,,2013-05-02 01:42:00,
2013-05-01 21:52:00,71.0,-99.9,29.96,SE,144,4.0,6.0,-999,-99.99,,,-99.99,,2013-05-02 01:52:00,
2013-05-01 22:02:00,71.0,-99.9,29.96,SE,141,4.0,6.0,-999,-99.99,,,-99.99,,2013-05-02 02:02:00,
2013-05-01 22:12:00,71.0,-99.9,29.96,SE,124,5.0,8.0,-999,-99.99,,,-99.99,,2013-05-02 02:12:00,
2013-05-01 22:22:00,71.0,-99.9,29.96,SE,133,6.0,8.0,-999,-99.99,,,-99.99,,2013-05-02 02:22:00,
2013-05-01 22:32:00,71.0,-99.9,29.96,SE,128,7.0,11.0,-999,-99.99,,,-99.99,,2013-05-02 02:32:00,
2013-05-01 22:42:00,71.0,-99.9,29.96,SE,128,7.0,11.0,-999,-99.99,,,-99.99,,2013-05-02 02:42:00,
2013-05-01 22:52:00,71.0,-99.9,29.96,SE,128,7.0,11.0,-999,-99.99,,,-99.99,,2013-05-02 02:52:00,
2013-05-01 23:01:00,71.0,-99.9,29.96,SE,129,7.0,12.0,-999,-99.99,,,-99.99,,2013-05-02 03:01:00,
2013-05-01 23:11:00,71.0,-99.9,29.96,SE,129,7.0,10.0,-999,-99.99,,,-99.99,,2013-05-02 03:11:00,
2013-05-01 23:22:00,70.0,-99.9,29.96,SE,129,6.0,8.0,-999,-99.99,,,-99.99,,2013-05-02 03:22:00,
2013-05-01 23:33:00,70.0,-99.9,29.96,SE,124,5.0,8.0,-999,-99.99,,,-99.99,,2013-05-02 03:33:00,
2013-05-01 23:43:00,70.0,-99.9,29.96,ESE,111,5.0,9.0,-999,-99.99,,,-99.99,,2013-05-02 03:43:00,
2013-05-01 23:53:00,70.0,-99.9,29.96,ESE,120,6.0,9.0,-999,-99.99,,,-99.99,,2013-05-02 03:53:00,